Regional Weather Roundup
Issued by NWS

Home | Current Version | Previous Version | Graphics & Text | Print | Product List | Glossary On
Versions: 1 2 3 4 5 6 7 8 9 10 11 12 13 14 15 16 17 18 19 20 21 22 23 24 25 26 27 28 29 30 31 32 33 34 35 36 37 38 39 40 41 42 43 44 45 46 47 48 49 50
000
ASUS43 KLOT 101608
RWRIL

ILLINOIS REGIONAL WEATHER ROUNDUP
NATIONAL WEATHER SERVICE CHICAGO/ROMEOVILLE IL
1000 AM CST SUN DEC 10 2017

NOTE: "FAIR" INDICATES FEW OR NO CLOUDS BELOW 12,000 FEET WITH NO
SIGNIFICANT WEATHER AND/OR OBSTRUCTIONS TO VISIBILITY.

* THESE STATIONS ARE NOT UNDER NWS QUALITY CONTROL. THEY ALSO MAY NOT
  REPORT WEATHER SUCH AS PRECIPITATION OR FOG.

ILZ001-002-007-009-015-016-024-101700-
NORTHWEST ILLINOIS

CITY           SKY/WX    TMP DP  RH WIND       PRES   REMARKS
MOLINE         SUNNY     33  21  61 W12G20    29.92R WCI  24
STERLING*      MOSUNNY   32  21  64 W10       29.91S WCI  24
SAVANNA*       MOSUNNY   29  20  68 W7        29.91R WCI  22
$$

ILZ003-004-008-010-011-017-018-101700-
NORTH CENTRAL ILLINOIS

CITY           SKY/WX    TMP DP  RH WIND       PRES   REMARKS
ROCKFORD       CLOUDY    29  18  63 W10       29.91S WCI  20
FREEPORT*      CLOUDY    27  19  70 W9        29.91R WCI  18
ROCHELLE*      CLOUDY    30  20  65 W16       29.90S WCI  18
DE KALB*       CLOUDY    29  19  65 W15       29.89S WCI  18
PERU*          CLOUDY    29  18  61 SW13      29.92S WCI  19
$$

ILZ005-006-012>014-019>023-101700-
NORTHEAST ILLINOIS

CITY           SKY/WX    TMP DP  RH WIND       PRES   REMARKS
CHICAGO-OHARE  PTSUNNY   29  17  61 SW15G23   29.89S WCI  18
CHICAGO-MIDWAY PTSUNNY   30  19  63 SW15G23   29.91S WCI  19
AURORA         SUNNY     29  18  63 SW15      29.91S WCI  18
LANSING*       CLOUDY    28  21  74 SW18      29.92F WCI  16
WAUKEGAN       MOSUNNY   29  18  63 SW12G22   29.87F WCI  19
DUPAGE AIRPORT CLOUDY    28  19  69 SW15G23   29.90S WCI  16
KANKAKEE*      SUNNY     31  17  56 SW18G24   29.95F WCI  19
WHEELING       SUNNY     30  19  63 SW8G20    29.91S WCI  22
MORRIS*        CLOUDY    32  19  58 SW15      29.91F WCI  22
ROMEOVILLE*    MOSUNNY   30  19  62 SW18G24   29.91F WCI  18
NORTHERLY ISL    N/A     29  17  61 S6          N/A  WCI  23
$$

LMZ740>746-101700-
SOUTHERN LAKE MICHIGAN

STATION/POSITION SKY/WX   TEMP    WIND        PRES    VSBY  WAVE
                          AIR SEA DIR/SP/G                  HT/PER
                          (F)     (DEG/KT/KT) (MB)    (MI)  (FT/S)
HARRISON CRIB              28     200/ 19/ 22   N/A
BURNHAM HARBOR             29     250/  6/ 14   N/A
CALUMET HARBOR             28     200/ 12/ 17 1012.2F
BURNS HARBOR               28     210/ 13/ 20 1013.5F
MICHIGAN CITY              26     190/ 15/ 19   N/A
$$

ILZ025>027-034>036-040-047-049-050-058-095>099-101700-
WEST-CENTRAL ILLINOIS

CITY           SKY/WX    TMP DP  RH WIND       PRES   REMARKS
QUINCY         SUNNY     36  23  59 W14       29.98F WCI  27
GALESBURG*     MOSUNNY   32  23  70 W13       29.94S WCI  22
MACOMB*        SUNNY     33  22  64 W16G23    29.97S WCI  23
JACKSONVILLE*  SUNNY     34  20  56 SW17      29.99S WCI  23
PITTSFIELD*    CLOUDY    37  23  58 W14       30.00F WCI  28
$$

ILZ028>032-037-038-041>044-048-051>054-059>061-101700-
CENTRAL ILLINOIS

CITY           SKY/WX    TMP DP  RH WIND       PRES   REMARKS
PONTIAC        SUNNY     33  20  59 SW20G28   29.94S WCI  21
BLOOMINGTON    CLOUDY    32  20  61 SW23G29   29.92F WCI  19
DECATUR        SUNNY     34  20  56 SW20G25   30.00S WCI  23
PEORIA         CLOUDY    32  20  61 SW12      29.95F WCI  23
LACON*         SUNNY     31  19  60 SW12      29.92F WCI  22
LINCOLN*       SUNNY     35  22  58 SW8G18    29.97F WCI  28
SPRINGFIELD    SUNNY     38  22  52 W18G29    29.99R WCI  28
TAYLORVILLE    SUNNY     34  20  57 SW16      30.01R WCI  23
$$

ILZ033-039-045-046-055>057-062-063-101700-
EAST-CENTRAL ILLINOIS

CITY           SKY/WX    TMP DP  RH WIND       PRES   REMARKS
CHAMPAIGN      SUNNY     32  19  58 S25G31    29.98F WCI  19
DANVILLE*      SUNNY     30  18  60 S17G29    29.97F WCI  18
RANTOUL*       SUNNY     33  20  59 S17G23    29.96F WCI  22
MATTOON        SUNNY     31  20  63 S13G26    30.01F WCI  21
PARIS*         MOSUNNY   31  20  61 S18       30.05F WCI  20
$$

ILZ079-100>102-101700-
SOUTHWEST ILLINOIS

CITY           SKY/WX    TMP DP  RH WIND       PRES   REMARKS
ALTON          PTSUNNY   34  23  64 SW12      30.04F WCI  25
BELLEVILLE     SUNNY     35  21  56 SW12      30.06F WCI  27
CAHOKIA*       SUNNY     37  19  48 SW9G18    30.07R WCI  30
$$

ILZ064>066-069>071-074>076-080>082-084>086-088>090-092>094-101700-
SOUTH-CENTRAL ILLINOIS

CITY           SKY/WX    TMP DP  RH WIND       PRES   REMARKS
CARBONDALE     SUNNY     36  22  56 SW17      30.15F WCI  26
CAIRO*         SUNNY     35  26  68 S10G16    30.21F WCI  27
EFFINGHAM*     SUNNY     35  22  59 S12G20    30.06F WCI  26
MARION         MOSUNNY   37  23  56 SW17      30.15F WCI  28
MT. VERNON     SUNNY     35  22  58 SW20      30.10F WCI  24
CENTRALIA*     SUNNY     36  23  59 S17G23    30.07F WCI  25
SALEM*         SUNNY     35  20  54 S18       30.07F WCI  25
METROPOLIS*    SUNNY     35  22  59 S15       30.21F WCI  26
$$

ILZ067-068-072-073-078-083-087-091-101700-
SOUTHEAST ILLINOIS

CITY           SKY/WX    TMP DP  RH WIND       PRES   REMARKS
LAWRENCEVILLE  SUNNY     33  20  58 SW16      30.12F WCI  23
FLORA*         SUNNY     35  23  61 SW17      30.09F WCI  25
FAIRFIELD*     SUNNY     34  22  60 SW10      30.11F WCI  26
HARRISBURG*    SUNNY     34  23  63 SW14      30.16F WCI  25
ROBINSON*      MOSUNNY   32  20  61 S14G21    30.10F WCI  22
CARMI*         SUNNY     34  22  61 S13G25    30.14F WCI  25
$$

ABBREVIATIONS USED IN REMARKS
   TC - TEMPERATURE IN CELSIUS
  WCI - WIND CHILL INDEX
   HX - HEAT INDEX
  VSB - VISIBILITY
$$





USA.gov is the U.S. government's official web portal to all federal, state and local government web resources and services.